Location: Riverton
(43.0250°N, 108.3790°W)
Time: 00:49:54
(UTC-06:00)

JAS-2 - Visible Passes

Search period start: 30 May 2016 00:00
Search period end: 09 June 2016 00:00
Orbit: 801 x 1321 km, 98.6° (Epoch: 29 May)

Date Brightness Start Highest point End Pass type
(mag) Time Alt. Az. Time Alt. Az. Time Alt. Az.
30 May 10.9 01:12:57 10° NNE 01:19:18 31° E 01:21:29 26° ESE visible
30 May 10.2 02:57:29 10° N 03:04:39 53° WNW 03:07:58 29° SW visible
30 May 11.9 04:45:44 10° NNW 04:47:50 11° NW 04:49:54 10° WNW visible
31 May 11.8 00:21:23 10° ENE 00:23:15 11° E 00:25:04 10° E visible
31 May 9.9 02:02:26 10° NNE 02:09:48 69° E 02:12:13 42° S visible
31 May 11.2 03:48:19 10° N 03:54:04 25° WNW 03:58:42 13° WSW visible
01 Jun 10.9 01:08:15 10° NNE 01:14:18 28° E 01:16:28 24° ESE visible
01 Jun 10.1 02:52:38 10° N 02:59:46 56° WNW 03:02:57 31° SW visible
01 Jun 11.8 04:40:39 10° NNW 04:43:02 12° NW 04:45:21 10° WNW visible
02 Jun 9.9 01:57:39 10° NNE 02:04:52 65° E 02:07:12 41° SSE visible
02 Jun 11.1 03:43:26 10° N 03:49:13 26° WNW 03:53:40 13° WSW visible
03 Jun 11.0 01:03:34 10° NE 01:09:19 26° E 01:11:26 22° ESE visible
03 Jun 10.0 02:47:48 10° N 02:54:52 59° WNW 02:57:55 32° SW visible
03 Jun 11.8 04:35:37 10° NNW 04:38:13 12° NW 04:40:45 10° WNW visible
04 Jun 9.9 01:52:52 10° NNE 01:59:55 60° E 02:02:09 40° SSE visible
04 Jun 11.1 03:38:33 10° N 03:44:22 27° WNW 03:48:38 14° WSW visible
05 Jun 11.1 00:58:53 10° NE 01:04:19 24° E 01:06:23 20° ESE visible
05 Jun 9.9 02:42:57 10° N 02:49:58 62° WNW 02:52:52 34° SW visible
05 Jun 11.7 04:30:36 10° NNW 04:33:24 13° NW 04:36:05 10° WNW visible
06 Jun 10.0 01:48:04 10° NNE 01:54:57 56° E 01:57:06 39° SSE visible
06 Jun 11.0 03:33:40 10° N 03:39:29 28° WNW 03:43:34 15° WSW visible
07 Jun 11.1 00:54:14 10° NE 00:59:17 22° E 01:01:19 19° ESE visible
07 Jun 9.8 02:38:07 10° N 02:45:03 66° WNW 02:47:48 35° SW visible
07 Jun 11.7 04:25:36 10° NNW 04:28:33 13° NW 04:31:24 10° WNW visible
08 Jun 10.1 01:43:17 10° NNE 01:49:59 52° E 01:52:01 38° SSE visible
08 Jun 10.9 03:28:47 10° N 03:34:37 30° WNW 03:38:30 16° WSW visible
